Location: Klein M�hlingen
(51.9472°N, 11.7453°E)
Time: 18:54:48
(UTC+00:00)

Mayak - Pass Details

Date: 09 April 2020
Orbit: 581 x 600 km, 97.5° (Epoch: 04 June)

Event Time Altitude Azimuth Distance (km) Brightness Sun altitude
Rises 20:23:54 0° 26° (NNE) 2,825 ? -19.9°
Reaches altitude 10° 20:26:42 10° 47° (NE) 1,915 ? -20.2°
Enters shadow 20:27:53 14° 61° (ENE) 1,645 ? -20.3°
